Regional Weather Roundup
Issued by NWS

Home | Current Version | Previous Version | Graphics & Text | Print | Product List | Glossary On
Versions: 1 2 3 4 5 6 7 8 9 10 11 12 13 14 15 16 17 18 19 20 21 22 23 24 25 26 27 28 29 30 31 32 33 34 35 36 37 38 39 40 41 42 43 44 45 46 47 48 49 50
000
ASUS43 KLSX 010307
RWRMO

WEATHER SUMMARY FOR MISSOURI
NATIONAL WEATHER SERVICE SPRINGFIELD MO
1000 PM CDT FRI JUL 31 2015

NOTE: "FAIR" INDICATES FEW OR NO CLOUDS BELOW 12,000 FEET WITH NO
       SIGNIFICANT WEATHER AND/OR OBSTRUCTIONS TO VISIBILITY.
       CURRENT SKY AND/OR WEATHER CONDITIONS ARE NOT AVAILABLE FOR
       CHILLICOTHE AND FARMINGTON.

MOZ001>031-035>038-043-044-053-054-010400-
...NORTHERN AND WESTERN MISSOURI...

CITY           SKY/WX    TMP DP  RH WIND       PRES   REMARKS
KANSAS CTY INT PTCLDY    77  68  73 SW6       30.07R
KANSAS C DTWN  CLEAR     82  68  62 W3        30.05R
LEE`S SUMMIT   CLEAR     81  64  56 CALM      30.08R
ST JOSEPH      MOCLDY    79  74  84 SW6       30.04S
CHILLICOTHE      N/A     81  74  79 CALM      30.06R
KIRKSVILLE     MOCLDY    75  71  87 CALM      30.07R

$$
MOZ066>068-077>081-088>096-101>105-010400-
...SOUTHWEST MISSOURI...

CITY           SKY/WX    TMP DP  RH WIND       PRES   REMARKS
SPRINGFIELD    CLEAR     73  63  70 S3        30.10R
JOPLIN         CLEAR     74  61  63 S6        30.10R

$$
MOZ032>034-039>042-045>050-055>058-069>072-010400-
...CENTRAL MISSOURI...

CITY           SKY/WX    TMP DP  RH WIND       PRES   REMARKS
COLUMBIA       CLEAR     79  66  64 W6        30.07R
JEFFERSON CITY CLEAR     75  68  78 CALM      30.04R
ROLLA          CLEAR     74  62  66 CALM      30.07R
SEDALIA        CLEAR     78  64  61 CALM      30.08R
WHITEMAN AFB   CLEAR     77  67  69 CALM      30.06R
WARRENSBURG    CLEAR     77  64  65 S5        30.06R
OSAGE BEACH    CLEAR     72  68  88 CALM      30.08R

$$
MOZ051-052-059>065-010400-
...EAST CENTRAL MISSOURI...

CITY           SKY/WX    TMP DP  RH WIND       PRES   REMARKS
ST LOUIS INTL  PTCLDY    82  63  52 CALM      30.04R
SPIRIT OF STL  CLEAR     74  70  87 CALM      30.02R
ST CHARLES     CLEAR     78  71  79 CALM      30.02R

$$
MOZ072>076-082>087-097>100-106>115-010400-
...SOUTH CENTRAL AND SOUTHEAST MISSOURI...

CITY           SKY/WX    TMP DP  RH WIND       PRES   REMARKS
CAPE GIRARDEAU CLEAR     75  71  87 CALM      30.04R
FARMINGTON     CLEAR     72  66  83 CALM      30.11R
POPLAR BLUFF   CLEAR     75  71  87 CALM      30.04R
WEST PLAINS    CLEAR     73  64  73 CALM      30.12R

$$



USA.gov is the U.S. government's official web portal to all federal, state and local government web resources and services.